Temp
-20 -21 -21 -22 -22 -23 -23 -23 -23 -23 -23 -24 -24 -24 -24 -24 -23 -22 -21 -19 -20 -21 -20 -20 -20 -20 -20 -20 -19 -19 -18 -17 -16 -15 -14 -13 -12 -11 -10 -9 -9 -9 -9 -8 -8 -8 -7 -7 -7 -7 -7 -6 -5 -4 -3 -2 -2 -3 -3 -2 -2 -1 -1 -1 -0 -0 -0 -0 -0 -0 0 0 1 2
-20 -21 -21 -22 -22 -23 -23 -23 -23 -23 -24 -24 -24 -24 -24 -24 -23 -23 -21 -19 -20 -21 -20 -20 -20 -20 -20 -20 -20 -20 -19 -18 -17 -16 -15 -14 -13 -12 -11 -10 -9 -9 -9 -9 -8 -8 -7 -7 -7 -7 -7 -6 -6 -5 -4 -3 -2 -2 -3 -3 -2 -2 -1 -1 -1 -0 -0 0 -0 -0 -0 0 1 1
-20 -21 -21 -22 -22 -22 -22 -23 -23 -23 -24 -24 -24 -23 -23 -23 -23 -22 -21 -19 -19 -20 -20 -20 -20 -20 -20 -20 -20 -20 -20 -19 -18 -17 -16 -14 -13 -12 -11 -10 -9 -9 -9 -9 -9 -8 -8 -7 -7 -7 -7 -7 -7 -6 -5 -4 -3 -2 -3 -3 -3 -2 -1 -1 -1 -1 -0 -0 -0 -1 -1 -0 0 1
-20 -21 -22 -22 -22 -22 -22 -23 -23 -23 -24 -24 -24 -23 -23 -23 -22 -22 -21 -19 -19 -19 -20 -19 -19 -19 -19 -19 -19 -19 -19 -19 -19 -18 -17 -15 -14 -13 -11 -10 -10 -9 -9 -9 -9 -8 -8 -7 -7 -7 -7 -7 -7 -7 -6 -5 -4 -3 -3 -3 -3 -2 -2 -1 -1 -2 -1 -0 -0 -1 -1 -1 -1 0
-21 -21 -22 -22 -22 -22 -22 -23 -23 -23 -24 -24 -23 -23 -22 -22 -22 -21 -21 -20 -19 -19 -19 -19 -19 -19 -19 -19 -19 -19 -19 -19 -19 -18 -17 -16 -15 -13 -12 -11 -10 -9 -9 -9 -9 -8 -8 -8 -7 -7 -7 -7 -7 -7 -7 -6 -5 -4 -3 -3 -3 -3 -2 -1 -2 -3 -2 -1 -0 -0 -1 -1 -1 -0
-20 -21 -22 -22 -22 -22 -22 -23 -23 -23 -24 -24 -23 -23 -22 -21 -21 -21 -21 -20 -19 -18 -19 -19 -19 -19 -19 -19 -19 -19 -19 -19 -19 -19 -18 -17 -15 -14 -12 -11 -10 -10 -9 -9 -8 -8 -8 -8 -7 -7 -7 -7 -7 -7 -7 -7 -6 -5 -4 -3 -3 -3 -3 -1 -2 -3 -2 -1 -1 -0 -1 -1 -1 -1
-20 -21 -21 -22 -22 -22 -22 -23 -23 -23 -23 -23 -23 -22 -22 -21 -21 -21 -21 -20 -20 -19 -19 -19 -19 -19 -19 -19 -19 -19 -19 -19 -19 -18 -18 -17 -16 -14 -13 -12 -11 -10 -9 -9 -8 -8 -8 -8 -7 -7 -7 -7 -7 -7 -7 -7 -6 -5 -5 -4 -4 -4 -4 -3 -3 -3 -3 -2 -1 -1 -1 -1 -1 -1
-20 -21 -21 -22 -22 -22 -22 -23 -23 -23 -23 -23 -23 -22 -22 -22 -21 -21 -21 -21 -21 -20 -19 -19 -20 -20 -19 -19 -19 -19 -19 -19 -19 -18 -18 -17 -16 -15 -14 -12 -11 -10 -9 -9 -8 -8 -8 -8 -7 -7 -7 -7 -7 -7 -7 -7 -7 -6 -6 -5 -4 -4 -4 -4 -4 -4 -4 -3 -1 -1 -1 -1 -1 -1
-20 -21 -21 -22 -22 -22 -22 -23 -23 -23 -23 -23 -22 -22 -22 -22 -21 -21 -21 -21 -21 -21 -20 -20 -20 -20 -20 -20 -20 -20 -20 -19 -19 -19 -18 -17 -17 -16 -14 -13 -11 -11 -10 -9 -9 -8 -8 -8 -8 -7 -7 -7 -7 -7 -7 -7 -7 -7 -6 -6 -5 -5 -5 -5 -4 -4 -4 -3 -2 -1 -1 -1 -1 -1
-20 -21 -21 -22 -22 -22 -22 -23 -23 -23 -23 -23 -22 -22 -22 -22 -21 -21 -21 -21 -21 -21 -21 -20 -20 -20 -20 -20 -20 -20 -20 -20 -19 -19 -18 -18 -17 -16 -15 -13 -12 -11 -10 -9 -9 -9 -8 -8 -8 -7 -7 -7 -7 -6 -7 -7 -7 -7 -7 -6 -6 -6 -6 -6 -5 -4 -3 -3 -2 -2 -1 -1 -1 -1
-20 -21 -21 -22 -22 -22 -22 -23 -23 -23 -23 -22 -22 -22 -22 -22 -21 -21 -20 -21 -21 -21 -21 -21 -20 -20 -20 -20 -20 -20 -20 -20 -19 -19 -19 -18 -18 -17 -16 -14 -13 -11 -10 -10 -9 -9 -8 -8 -8 -7 -7 -7 -7 -6 -7 -7 -7 -7 -7 -7 -6 -6 -6 -6 -5 -5 -4 -3 -2 -2 -1 -1 -1 -1
-20 -20 -21 -21 -22 -22 -22 -22 -23 -23 -23 -22 -22 -22 -22 -22 -21 -20 -20 -21 -21 -21 -20 -20 -20 -21 -20 -20 -20 -20 -20 -20 -20 -20 -19 -18 -18 -17 -16 -15 -13 -12 -11 -10 -9 -9 -9 -8 -8 -8 -7 -7 -7 -6 -6 -7 -7 -7 -7 -7 -6 -6 -6 -6 -5 -5 -4 -3 -3 -2 -2 -2 -2 -1
-20 -20 -21 -21 -22 -22 -22 -22 -23 -23 -23 -22 -22 -22 -22 -21 -21 -20 -21 -21 -21 -20 -20 -20 -20 -20 -20 -21 -20 -20 -20 -20 -20 -20 -20 -19 -18 -18 -17 -16 -14 -13 -11 -10 -10 -9 -9 -8 -8 -8 -7 -7 -7 -7 -6 -6 -7 -7 -7 -7 -7 -6 -6 -6 -6 -5 -5 -4 -3 -3 -3 -3 -2 -2
-20 -20 -21 -21 -22 -22 -22 -22 -23 -23 -23 -22 -22 -22 -22 -21 -21 -21 -21 -21 -20 -20 -19 -20 -20 -20 -20 -21 -21 -20 -20 -20 -20 -20 -20 -20 -19 -18 -17 -16 -15 -13 -12 -11 -10 -9 -9 -9 -8 -8 -7 -7 -7 -7 -6 -6 -6 -7 -7 -7 -7 -7 -6 -6 -6 -5 -5 -4 -4 -4 -3 -3 -3 -3
-20 -20 -21 -21 -22 -22 -22 -22 -22 -23 -23 -22 -22 -22 -21 -21 -21 -21 -21 -20 -20 -19 -19 -19 -20 -20 -20 -20 -20 -20 -20 -20 -20 -20 -20 -20 -19 -19 -18 -16 -15 -14 -13 -12 -10 -10 -10 -9 -8 -8 -8 -7 -7 -7 -6 -6 -6 -6 -7 -7 -7 -7 -7 -6 -6 -5 -5 -4 -4 -4 -4 -3 -3 -3
-19 -20 -20 -21 -21 -22 -22 -22 -22 -22 -22 -22 -22 -21 -21 -21 -21 -21 -21 -20 -19 -19 -19 -19 -19 -19 -19 -19 -19 -19 -19 -19 -19 -20 -20 -20 -19 -19 -18 -17 -15 -15 -14 -13 -11 -10 -10 -10 -9 -8 -8 -7 -7 -7 -6 -6 -6 -6 -7 -7 -7 -7 -7 -6 -6 -5 -5 -4 -4 -4 -4 -3 -3 -3
-19 -20 -20 -21 -21 -22 -22 -22 -22 -22 -22 -22 -21 -21 -21 -21 -21 -21 -20 -20 -19 -19 -19 -18 -19 -19 -19 -19 -19 -19 -19 -19 -19 -19 -20 -20 -19 -19 -19 -17 -16 -16 -16 -14 -12 -11 -10 -10 -9 -9 -8 -8 -7 -7 -7 -6 -6 -7 -7 -7 -7 -7 -7 -7 -6 -5 -5 -4 -4 -4 -3 -3 -3 -3
-19 -19 -20 -20 -21 -21 -21 -21 -21 -22 -22 -21 -20 -20 -21 -20 -21 -20 -20 -19 -19 -19 -19 -18 -18 -19 -18 -18 -18 -19 -19 -18 -19 -19 -19 -19 -19 -19 -19 -17 -16 -16 -16 -14 -12 -11 -10 -10 -10 -9 -9 -8 -8 -7 -7 -6 -6 -6 -7 -7 -7 -7 -7 -7 -7 -6 -5 -5 -4 -4 -3 -3 -3 -3
-19 -19 -20 -20 -21 -21 -21 -21 -21 -21 -22 -21 -20 -20 -20 -20 -20 -20 -19 -19 -19 -19 -19 -18 -18 -18 -18 -18 -18 -19 -18 -18 -18 -19 -19 -18 -18 -19 -19 -18 -17 -16 -15 -14 -13 -12 -10 -10 -10 -9 -9 -8 -8 -7 -7 -7 -6 -6 -7 -7 -7 -7 -7 -7 -7 -6 -5 -5 -4 -4 -4 -3 -3 -3
-19 -19 -20 -20 -21 -21 -21 -21 -21 -21 -21 -21 -20 -20 -20 -20 -20 -20 -20 -19 -19 -19 -19 -18 -18 -18 -18 -18 -18 -18 -17 -17 -18 -19 -18 -18 -19 -19 -18 -17 -16 -16 -15 -14 -13 -12 -11 -10 -10 -9 -9 -9 -8 -7 -7 -7 -6 -7 -7 -7 -7 -7 -7 -7 -7 -6 -6 -5 -5 -4 -4 -4 -4 -4
-19 -19 -19 -20 -20 -21 -21 -21 -21 -21 -21 -21 -20 -20 -20 -20 -20 -20 -20 -20 -20 -19 -19 -18 -18 -18 -18 -19 -18 -18 -17 -18 -18 -18 -18 -18 -19 -19 -18 -17 -16 -16 -16 -15 -14 -13 -12 -11 -10 -10 -10 -9 -8 -8 -7 -7 -7 -7 -8 -8 -8 -8 -8 -7 -7 -6 -6 -5 -5 -5 -4 -4 -4 -4
-18 -19 -19 -20 -20 -20 -21 -21 -21 -21 -21 -21 -20 -19 -19 -19 -19 -19 -19 -20 -21 -20 -20 -19 -19 -19 -19 -19 -18 -18 -17 -17 -18 -18 -18 -17 -18 -18 -18 -17 -17 -16 -15 -15 -15 -14 -13 -12 -11 -11 -11 -10 -9 -8 -7 -7 -8 -8 -8 -8 -8 -8 -8 -7 -7 -6 -6 -6 -5 -5 -5 -5 -5 -5
-18 -19 -19 -19 -20 -20 -20 -20 -21 -21 -21 -20 -20 -19 -19 -19 -19 -18 -18 -19 -20 -20 -20 -19 -19 -19 -19 -18 -18 -18 -17 -17 -17 -17 -17 -17 -17 -17 -17 -17 -17 -16 -15 -14 -14 -14 -13 -12 -12 -12 -11 -10 -9 -8 -9 -9 -9 -8 -8 -8 -8 -8 -8 -7 -7 -7 -6 -6 -6 -5 -5 -5 -5 -5
-18 -19 -19 -19 -20 -20 -20 -20 -21 -21 -21 -20 -20 -19 -19 -19 -19 -18 -18 -19 -20 -20 -20 -19 -19 -19 -18 -18 -18 -17 -17 -17 -17 -17 -16 -16 -17 -17 -16 -16 -16 -16 -15 -14 -14 -14 -13 -13 -12 -12 -11 -10 -10 -9 -10 -10 -9 -9 -8 -8 -8 -8 -8 -7 -7 -7 -6 -6 -6 -5 -5 -5 -5 -5
-18 -19 -19 -19 -19 -20 -20 -21 -21 -21 -20 -20 -20 -19 -19 -19 -19 -19 -19 -19 -20 -20 -20 -19 -19 -18 -18 -18 -17 -17 -17 -17 -17 -16 -16 -16 -16 -16 -16 -15 -15 -14 -14 -14 -14 -13 -13 -13 -12 -12 -12 -11 -11 -10 -10 -10 -10 -9 -9 -9 -8 -8 -8 -7 -7 -7 -7 -6 -6 -6 -5 -5 -5 -4
-18 -18 -19 -19 -19 -19 -20 -21 -21 -20 -20 -20 -20 -20 -20 -20 -20 -20 -20 -20 -19 -19 -19 -19 -18 -18 -18 -17 -17 -17 -17 -17 -17 -16 -16 -16 -16 -16 -15 -15 -14 -14 -13 -13 -13 -12 -12 -12 -12 -12 -12 -12 -11 -11 -10 -10 -10 -10 -9 -9 -8 -8 -8 -8 -7 -7 -7 -6 -6 -6 -5 -5 -5 -5
-18 -18 -18 -18 -19 -19 -20 -20 -20 -20 -20 -20 -20 -20 -20 -20 -20 -20 -20 -20 -19 -19 -19 -19 -18 -18 -17 -17 -17 -16 -17 -17 -17 -16 -16 -15 -15 -15 -15 -15 -14 -14 -13 -13 -12 -12 -12 -12 -11 -12 -12 -11 -11 -11 -10 -10 -10 -9 -9 -9 -9 -8 -8 -8 -7 -7 -7 -6 -6 -6 -6 -6 -5 -5
-18 -18 -18 -18 -19 -19 -20 -20 -20 -20 -19 -19 -20 -20 -20 -20 -20 -20 -20 -20 -19 -19 -18 -18 -18 -17 -17 -16 -16 -16 -17 -17 -16 -16 -16 -15 -15 -15 -15 -14 -14 -14 -13 -13 -12 -12 -12 -12 -12 -12 -11 -11 -11 -10 -10 -10 -10 -9 -9 -9 -9 -8 -8 -8 -7 -7 -7 -7 -7 -7 -7 -6 -6 -6
-18 -18 -18 -18 -18 -19 -19 -19 -19 -19 -20 -19 -20 -20 -20 -20 -20 -20 -20 -20 -19 -19 -18 -17 -17 -17 -16 -16 -16 -17 -17 -17 -16 -16 -16 -15 -15 -14 -14 -14 -14 -14 -13 -13 -13 -12 -12 -12 -11 -11 -11 -11 -11 -10 -10 -10 -9 -9 -9 -9 -9 -9 -8 -8 -8 -7 -7 -7 -7 -7 -7 -7 -6 -6
-18 -18 -18 -18 -18 -18 -19 -19 -19 -19 -19 -19 -19 -20 -20 -20 -20 -20 -20 -19 -19 -18 -18 -17 -17 -17 -16 -17 -17 -17 -16 -16 -16 -16 -16 -15 -15 -14 -14 -14 -14 -13 -13 -13 -13 -12 -12 -12 -11 -11 -11 -10 -10 -10 -10 -10 -9 -9 -9 -9 -9 -9 -9 -9 -8 -8 -8 -7 -7 -7 -7 -7 -7 -7
-18 -18 -18 -18 -18 -18 -18 -19 -19 -19 -19 -20 -20 -20 -20 -20 -20 -19 -19 -19 -19 -19 -18 -17 -17 -17 -17 -17 -17 -17 -16 -16 -15 -15 -15 -15 -15 -15 -14 -14 -13 -13 -13 -13 -13 -12 -12 -12 -12 -11 -11 -11 -10 -10 -10 -10 -10 -10 -10 -9 -9 -9 -9 -9 -9 -9 -8 -8 -8 -8 -8 -8 -7 -7
-18 -18 -18 -18 -18 -18 -18 -18 -19 -19 -20 -20 -20 -20 -20 -20 -20 -20 -20 -19 -19 -19 -18 -18 -18 -17 -17 -17 -16 -16 -16 -16 -15 -15 -15 -15 -15 -15 -14 -13 -13 -13 -13 -13 -12 -12 -12 -12 -12 -11 -11 -11 -11 -10 -10 -10 -10 -10 -10 -10 -10 -10 -9 -9 -9 -9 -9 -9 -9 -8 -8 -8 -8 -7
-18 -18 -18 -18 -18 -18 -18 -19 -19 -20 -20 -20 -20 -20 -20 -20 -20 -20 -20 -19 -19 -19 -19 -18 -18 -18 -17 -17 -16 -16 -16 -16 -15 -15 -15 -15 -15 -15 -14 -14 -13 -13 -13 -12 -12 -12 -12 -12 -12 -12 -11 -11 -11 -11 -11 -11 -10 -10 -10 -10 -10 -10 -10 -9 -9 -9 -9 -9 -9 -9 -8 -8 -8 -8
-18 -18 -18 -18 -19 -19 -19 -20 -20 -20 -20 -20 -20 -20 -20 -20 -20 -20 -20 -19 -19 -19 -19 -18 -18 -18 -17 -17 -17 -16 -16 -15 -15 -15 -15 -15 -15 -15 -14 -14 -14 -13 -13 -13 -12 -12 -12 -12 -12 -11 -11 -11 -11 -11 -11 -11 -10 -10 -10 -10 -10 -10 -9 -9 -9 -9 -9 -9 -9 -9 -8 -8 -8 -8
-18 -18 -18 -19 -19 -19 -20 -20 -20 -20 -20 -20 -20 -20 -20 -20 -20 -20 -20 -20 -19 -19 -19 -18 -18 -18 -18 -17 -17 -16 -16 -15 -15 -15 -15 -15 -15 -14 -14 -14 -14 -14 -13 -13 -13 -12 -12 -12 -12 -11 -11 -11 -11 -11 -11 -11 -10 -10 -10 -10 -10 -9 -9 -9 -9 -9 -9 -9 -9 -9 -8 -8 -8 -8
-18 -18 -18 -19 -20 -20 -20 -20 -20 -20 -21 -21 -21 -21 -21 -20 -20 -20 -20 -20 -20 -19 -19 -19 -18 -18 -18 -18 -17 -17 -16 -16 -16 -15 -15 -15 -15 -14 -14 -14 -14 -14 -14 -13 -13 -13 -13 -13 -12 -12 -11 -11 -11 -11 -11 -11 -11 -10 -10 -10 -10 -10 -10 -9 -9 -9 -9 -9 -9 -8 -8 -8 -8 -8
-18 -18 -18 -19 -20 -20 -20 -20 -20 -21 -21 -21 -21 -21 -21 -21 -21 -21 -20 -20 -20 -20 -20 -19 -19 -18 -18 -18 -18 -18 -17 -16 -16 -16 -15 -15 -15 -14 -14 -14 -14 -14 -14 -14 -13 -13 -13 -13 -13 -12 -12 -11 -11 -11 -11 -11 -11 -10 -10 -10 -10 -10 -10 -9 -9 -9 -9 -9 -9 -8 -8 -8 -8 -8
-18 -18 -18 -19 -19 -20 -20 -20 -21 -21 -21 -21 -21 -21 -21 -21 -21 -21 -21 -21 -21 -21 -20 -20 -19 -19 -19 -18 -18 -18 -18 -17 -17 -16 -16 -15 -15 -15 -14 -14 -14 -14 -14 -14 -14 -13 -13 -13 -13 -13 -12 -12 -12 -12 -11 -11 -11 -11 -10 -10 -10 -10 -10 -10 -9 -9 -9 -9 -8 -8 -8 -9 -9 -8
-18 -18 -19 -19 -19 -20 -20 -20 -21 -21 -21 -21 -21 -21 -21 -21 -21 -21 -21 -21 -21 -21 -21 -21 -20 -20 -19 -19 -19 -18 -18 -17 -17 -17 -17 -16 -16 -15 -15 -14 -14 -14 -14 -14 -14 -14 -13 -13 -13 -13 -13 -13 -12 -12 -12 -12 -11 -11 -11 -11 -11 -10 -10 -10 -10 -9 -9 -9 -9 -9 -9 -9 -9 -9
-18 -18 -19 -19 -19 -20 -20 -20 -21 -21 -21 -21 -21 -21 -21 -21 -21 -21 -21 -21 -21 -21 -21 -21 -21 -20 -20 -20 -19 -19 -18 -18 -18 -17 -17 -17 -16 -16 -15 -15 -15 -14 -14 -14 -14 -14 -14 -13 -13 -13 -13 -13 -13 -13 -13 -12 -12 -12 -11 -11 -11 -11 -11 -10 -10 -10 -10 -9 -9 -9 -9 -9 -9 -9
-18 -18 -19 -19 -20 -20 -20 -20 -21 -21 -21 -21 -21 -21 -21 -21 -21 -21 -21 -21 -21 -21 -21 -21 -21 -21 -20 -20 -20 -20 -19 -19 -18 -18 -18 -17 -17 -16 -16 -16 -15 -15 -15 -14 -14 -14 -14 -14 -14 -13 -13 -13 -13 -13 -13 -13 -13 -12 -12 -12 -12 -11 -11 -11 -11 -10 -10 -10 -10 -10 -10 -9 -9 -9
-18 -18 -19 -19 -20 -20 -20 -20 -21 -21 -21 -21 -21 -21 -21 -21 -21 -21 -21 -21 -21 -21 -21 -21 -21 -21 -21 -20 -20 -20 -20 -20 -19 -19 -18 -18 -18 -17 -17 -16 -16 -15 -15 -15 -14 -14 -14 -14 -14 -14 -13 -13 -13 -13 -13 -13 -13 -13 -13 -12 -12 -12 -12 -11 -11 -11 -11 -11 -11 -10 -10 -10 -10 -9
-18 -18 -19 -19 -20 -20 -20 -20 -21 -21 -21 -21 -21 -21 -21 -21 -21 -21 -21 -21 -21 -21 -21 -21 -21 -21 -21 -20 -20 -20 -20 -20 -20 -19 -19 -19 -18 -18 -17 -17 -16 -16 -16 -15 -15 -15 -14 -14 -14 -14 -14 -13 -13 -13 -13 -13 -13 -13 -13 -13 -12 -12 -12 -12 -12 -11 -11 -11 -11 -11 -10 -10 -10 -9
-18 -18 -19 -19 -20 -20 -20 -20 -21 -21 -21 -21 -21 -21 -21 -21 -21 -21 -21 -21 -21 -21 -21 -21 -21 -21 -21 -21 -20 -20 -20 -20 -20 -20 -20 -19 -19 -18 -18 -18 -17 -17 -16 -16 -15 -15 -15 -14 -14 -14 -14 -13 -13 -13 -13 -13 -13 -13 -13 -13 -12 -12 -12 -12 -12 -12 -11 -11 -11 -11 -10 -10 -10 -10
-18 -18 -19 -19 -20 -20 -20 -20 -21 -21 -21 -21 -21 -21 -21 -21 -21 -21 -21 -21 -21 -21 -21 -21 -21 -21 -21 -21 -21 -21 -20 -20 -20 -20 -20 -20 -20 -19 -19 -18 -18 -18 -17 -17 -16 -16 -15 -15 -15 -14 -14 -14 -13 -13 -13 -13 -13 -13 -13 -13 -12 -12 -12 -12 -12 -12 -12 -11 -11 -11 -11 -10 -10 -10
Height
2821 2818 2815 2813 2811 2809 2807 2805 2802 2799 2795 2792 2788 2784 2781 2775 2769 2764 2761 2760 2760 2759 2757 2758 2758 2757 2757 2757 2757 2757 2757 2758 2759 2760 2762 2765 2769 2773 2776 2780 2784 2789 2794 2798 2803 2808 2814 2818 2822 2826 2830 2834 2839 2845 2851 2858 2865 2870 2875 2880 2886 2891 2894 2897 2902 2908 2914 2920 2925 2933 2940 2945 2950 2956
2818 2816 2813 2811 2810 2808 2805 2803 2800 2796 2793 2789 2786 2782 2779 2775 2770 2765 2760 2758 2758 2757 2756 2757 2757 2756 2755 2755 2754 2754 2754 2754 2754 2755 2757 2759 2763 2766 2770 2774 2779 2784 2789 2793 2798 2803 2808 2813 2817 2821 2825 2829 2834 2839 2845 2851 2858 2865 2870 2875 2880 2886 2890 2894 2897 2902 2910 2917 2921 2927 2933 2939 2944 2950
2816 2814 2812 2810 2808 2806 2803 2800 2797 2794 2790 2786 2783 2780 2776 2773 2769 2766 2761 2758 2758 2757 2755 2756 2755 2754 2754 2753 2752 2751 2751 2750 2750 2750 2751 2754 2757 2760 2764 2769 2774 2778 2784 2788 2793 2797 2803 2808 2812 2816 2821 2825 2829 2834 2839 2845 2851 2858 2865 2870 2875 2880 2885 2890 2894 2897 2905 2914 2919 2923 2927 2932 2938 2944
2814 2812 2809 2807 2806 2803 2801 2798 2795 2791 2787 2783 2780 2777 2774 2771 2768 2765 2761 2757 2756 2755 2753 2752 2752 2751 2750 2750 2749 2748 2748 2747 2746 2746 2746 2749 2752 2755 2759 2764 2768 2773 2778 2783 2788 2792 2797 2802 2807 2811 2816 2820 2824 2829 2834 2839 2845 2852 2859 2865 2870 2875 2879 2885 2889 2893 2901 2909 2914 2918 2922 2926 2931 2936
2812 2809 2807 2805 2804 2801 2798 2796 2792 2788 2784 2781 2778 2776 2772 2769 2766 2763 2759 2755 2753 2752 2751 2749 2748 2747 2746 2746 2745 2743 2743 2743 2742 2742 2742 2744 2746 2750 2754 2758 2763 2767 2772 2777 2782 2787 2792 2797 2802 2807 2811 2816 2820 2824 2829 2834 2840 2846 2852 2859 2865 2870 2874 2880 2885 2891 2898 2904 2907 2911 2917 2922 2925 2930
2810 2807 2805 2803 2801 2799 2796 2793 2789 2785 2782 2779 2776 2774 2770 2767 2764 2760 2757 2753 2749 2748 2747 2745 2744 2743 2741 2740 2740 2739 2738 2739 2739 2738 2738 2739 2741 2744 2748 2752 2757 2762 2767 2772 2777 2782 2786 2791 2796 2801 2806 2811 2815 2820 2824 2828 2834 2840 2846 2853 2858 2864 2869 2875 2883 2889 2895 2899 2902 2905 2910 2917 2921 2926
2808 2805 2803 2801 2798 2796 2794 2791 2787 2783 2780 2777 2773 2771 2768 2764 2761 2758 2754 2751 2747 2744 2742 2741 2739 2738 2736 2736 2735 2735 2734 2734 2734 2734 2735 2735 2736 2739 2743 2747 2752 2757 2761 2766 2772 2777 2781 2786 2791 2796 2801 2805 2810 2814 2818 2823 2828 2834 2840 2846 2852 2858 2864 2870 2880 2887 2891 2895 2898 2900 2904 2911 2916 2922
2806 2803 2800 2798 2796 2794 2791 2788 2784 2781 2778 2775 2771 2769 2766 2762 2759 2756 2753 2748 2744 2740 2738 2737 2735 2733 2732 2731 2731 2730 2729 2729 2730 2730 2731 2731 2732 2734 2737 2741 2746 2751 2756 2761 2766 2772 2776 2781 2786 2791 2796 2801 2805 2809 2813 2817 2822 2828 2834 2840 2846 2852 2858 2865 2875 2882 2886 2890 2893 2895 2898 2905 2911 2916
2804 2800 2798 2796 2793 2791 2788 2785 2782 2779 2776 2773 2770 2767 2763 2759 2756 2754 2750 2746 2742 2738 2734 2733 2732 2730 2728 2727 2727 2726 2725 2725 2725 2726 2726 2727 2728 2729 2732 2735 2740 2745 2750 2755 2761 2767 2772 2776 2781 2786 2791 2796 2801 2805 2808 2812 2817 2823 2828 2834 2840 2846 2852 2860 2869 2876 2880 2884 2887 2889 2892 2898 2905 2911
2802 2798 2795 2793 2791 2789 2786 2783 2780 2777 2774 2771 2768 2764 2760 2757 2754 2751 2747 2743 2739 2736 2732 2729 2729 2727 2725 2724 2724 2723 2722 2721 2722 2722 2722 2723 2724 2725 2726 2730 2734 2739 2744 2750 2755 2761 2766 2771 2776 2781 2786 2791 2796 2800 2804 2808 2813 2818 2824 2829 2835 2841 2848 2855 2863 2870 2875 2878 2881 2884 2887 2891 2899 2905
2800 2796 2793 2791 2789 2787 2784 2781 2778 2775 2771 2767 2764 2761 2758 2755 2752 2748 2745 2741 2737 2733 2730 2727 2726 2725 2723 2722 2721 2720 2719 2718 2718 2718 2718 2718 2720 2720 2721 2724 2729 2733 2739 2744 2750 2755 2761 2766 2771 2775 2780 2785 2791 2796 2800 2804 2809 2814 2820 2825 2831 2837 2844 2851 2857 2864 2870 2874 2875 2879 2882 2884 2891 2899
2797 2794 2791 2789 2787 2785 2782 2779 2776 2773 2769 2764 2761 2759 2756 2753 2750 2747 2742 2738 2734 2730 2728 2726 2724 2722 2721 2719 2718 2717 2716 2714 2714 2714 2713 2713 2715 2716 2716 2719 2723 2728 2733 2739 2745 2751 2756 2760 2765 2770 2775 2780 2786 2791 2796 2800 2805 2810 2816 2821 2827 2832 2838 2845 2852 2858 2864 2869 2871 2874 2877 2880 2885 2892
2796 2792 2789 2787 2785 2783 2780 2777 2775 2772 2769 2765 2760 2758 2755 2751 2748 2744 2740 2736 2732 2728 2726 2724 2722 2720 2718 2717 2715 2714 2713 2711 2710 2710 2709 2708 2710 2711 2711 2714 2718 2723 2728 2734 2739 2746 2751 2756 2761 2766 2770 2776 2781 2786 2791 2796 2800 2806 2811 2816 2822 2827 2833 2839 2846 2852 2858 2863 2866 2869 2874 2877 2882 2888
2795 2791 2787 2785 2783 2781 2779 2776 2774 2771 2769 2765 2761 2758 2754 2750 2746 2741 2737 2734 2730 2727 2725 2723 2720 2718 2717 2715 2713 2711 2710 2709 2707 2707 2706 2705 2705 2706 2706 2708 2713 2718 2723 2729 2734 2741 2747 2752 2756 2761 2766 2772 2777 2781 2785 2791 2796 2802 2807 2812 2817 2822 2828 2834 2840 2845 2851 2857 2861 2865 2869 2874 2879 2885
2793 2790 2786 2783 2781 2779 2777 2775 2772 2770 2768 2765 2762 2758 2754 2750 2745 2740 2736 2732 2729 2726 2724 2721 2719 2717 2715 2714 2712 2710 2708 2707 2705 2703 2702 2701 2700 2701 2701 2703 2708 2714 2719 2723 2729 2736 2742 2746 2751 2756 2762 2768 2772 2777 2782 2788 2793 2798 2802 2807 2812 2817 2822 2828 2833 2839 2845 2850 2855 2860 2864 2870 2876 2881
2790 2788 2785 2782 2779 2777 2775 2772 2770 2769 2767 2764 2761 2757 2753 2749 2745 2740 2736 2731 2727 2724 2721 2719 2717 2715 2713 2711 2709 2707 2705 2703 2701 2699 2697 2696 2695 2695 2696 2698 2704 2710 2714 2717 2722 2729 2735 2741 2746 2752 2758 2763 2768 2774 2780 2785 2789 2793 2797 2802 2807 2811 2816 2821 2827 2833 2838 2844 2850 2855 2860 2865 2871 2876
2788 2786 2783 2780 2777 2775 2772 2770 2768 2766 2765 2763 2759 2755 2751 2747 2743 2740 2736 2731 2727 2723 2719 2716 2715 2712 2710 2708 2706 2704 2701 2699 2696 2693 2691 2690 2689 2690 2691 2693 2699 2705 2708 2712 2718 2724 2731 2737 2742 2747 2754 2759 2764 2770 2775 2780 2784 2788 2793 2797 2802 2806 2811 2816 2821 2826 2833 2838 2844 2850 2855 2860 2866 2871
2786 2784 2781 2778 2775 2773 2771 2768 2766 2764 2762 2760 2757 2753 2749 2745 2741 2738 2735 2731 2727 2722 2718 2714 2712 2710 2707 2705 2703 2701 2697 2693 2691 2688 2686 2684 2684 2685 2686 2689 2695 2700 2704 2709 2715 2721 2728 2734 2738 2744 2750 2755 2760 2766 2771 2775 2779 2784 2789 2793 2798 2802 2806 2811 2816 2821 2827 2832 2838 2844 2850 2855 2861 2866
2784 2782 2779 2776 2773 2771 2769 2766 2763 2761 2760 2758 2755 2751 2747 2743 2740 2736 2732 2728 2725 2721 2717 2713 2710 2708 2706 2703 2699 2695 2692 2689 2686 2683 2681 2680 2681 2682 2684 2687 2691 2697 2702 2708 2713 2719 2726 2731 2736 2742 2747 2751 2757 2762 2766 2771 2776 2780 2784 2789 2794 2798 2802 2806 2811 2816 2821 2826 2832 2838 2844 2849 2855 2860
2783 2780 2777 2775 2772 2769 2767 2765 2762 2760 2758 2756 2753 2750 2746 2742 2739 2735 2731 2726 2722 2719 2715 2712 2709 2706 2703 2699 2694 2691 2689 2686 2683 2680 2678 2679 2679 2680 2682 2685 2690 2696 2702 2707 2712 2719 2725 2729 2734 2739 2744 2748 2753 2758 2763 2768 2772 2776 2780 2784 2789 2794 2798 2803 2807 2811 2815 2820 2826 2832 2838 2843 2849 2854
2782 2778 2776 2773 2770 2768 2765 2763 2761 2759 2757 2755 2752 2749 2745 2741 2738 2735 2731 2726 2722 2717 2713 2710 2707 2703 2699 2695 2692 2690 2688 2684 2681 2678 2678 2679 2679 2680 2682 2685 2690 2697 2703 2708 2713 2718 2723 2727 2732 2736 2741 2745 2750 2755 2760 2765 2769 2773 2776 2780 2785 2789 2794 2798 2802 2806 2810 2815 2820 2826 2832 2837 2843 2848
2781 2777 2774 2771 2768 2766 2764 2761 2759 2757 2755 2753 2750 2747 2743 2740 2736 2733 2730 2727 2723 2719 2714 2710 2706 2702 2698 2695 2693 2691 2687 2683 2680 2678 2679 2680 2681 2682 2685 2688 2693 2698 2703 2708 2713 2717 2721 2726 2731 2734 2738 2742 2746 2751 2756 2761 2765 2769 2773 2777 2781 2785 2790 2794 2798 2802 2806 2810 2815 2821 2826 2832 2837 2841
2780 2777 2773 2770 2767 2764 2762 2760 2757 2755 2754 2752 2749 2745 2741 2738 2735 2731 2727 2724 2723 2721 2718 2714 2710 2707 2703 2699 2696 2692 2688 2684 2681 2681 2681 2682 2683 2685 2688 2692 2696 2700 2703 2708 2713 2717 2721 2726 2729 2732 2736 2739 2743 2748 2753 2757 2762 2766 2770 2774 2778 2782 2787 2791 2795 2798 2802 2806 2810 2815 2821 2826 2831 2835
2780 2776 2772 2769 2766 2763 2761 2759 2756 2754 2753 2750 2747 2744 2740 2737 2733 2730 2726 2723 2722 2721 2720 2717 2714 2711 2707 2703 2699 2694 2690 2686 2683 2683 2684 2685 2686 2688 2691 2694 2699 2702 2704 2709 2714 2718 2722 2725 2728 2731 2735 2738 2742 2746 2750 2755 2759 2763 2767 2771 2775 2780 2784 2788 2791 2794 2798 2801 2805 2810 2814 2819 2824 2828
2779 2775 2772 2769 2766 2763 2760 2758 2756 2754 2752 2749 2746 2743 2739 2736 2732 2729 2727 2725 2723 2721 2720 2718 2715 2712 2709 2706 2702 2698 2693 2690 2687 2686 2686 2688 2690 2692 2694 2697 2701 2704 2707 2710 2715 2719 2722 2725 2728 2731 2734 2737 2741 2745 2749 2753 2757 2761 2765 2769 2773 2776 2780 2784 2787 2790 2793 2797 2800 2804 2808 2813 2818 2823
2778 2775 2771 2768 2765 2762 2760 2758 2755 2754 2751 2748 2745 2742 2739 2736 2733 2730 2728 2726 2724 2722 2720 2718 2716 2713 2710 2708 2704 2701 2698 2694 2691 2689 2689 2691 2693 2695 2696 2698 2702 2706 2709 2712 2715 2719 2722 2725 2728 2731 2734 2737 2740 2744 2748 2751 2755 2759 2763 2767 2770 2774 2777 2780 2783 2786 2789 2792 2795 2799 2804 2808 2813 2818
2777 2774 2771 2768 2765 2762 2760 2758 2755 2753 2750 2748 2745 2742 2739 2737 2734 2731 2729 2728 2725 2723 2720 2718 2716 2714 2711 2708 2706 2703 2700 2698 2696 2694 2693 2694 2695 2697 2699 2700 2702 2705 2709 2712 2715 2718 2721 2724 2727 2730 2733 2736 2739 2743 2746 2750 2753 2756 2760 2763 2767 2770 2773 2776 2779 2782 2785 2788 2791 2795 2799 2802 2806 2811
2776 2773 2770 2767 2765 2762 2760 2757 2754 2751 2749 2747 2744 2742 2739 2737 2734 2732 2731 2729 2726 2723 2721 2719 2716 2714 2711 2708 2706 2704 2702 2700 2699 2697 2696 2696 2697 2699 2701 2702 2703 2706 2709 2712 2715 2718 2721 2724 2726 2729 2732 2735 2738 2741 2745 2748 2751 2754 2757 2760 2763 2766 2769 2772 2775 2778 2781 2784 2787 2789 2792 2796 2801 2806
2775 2773 2770 2767 2765 2762 2760 2757 2753 2750 2748 2746 2743 2741 2739 2737 2735 2733 2731 2729 2726 2724 2721 2719 2717 2714 2711 2709 2707 2706 2705 2703 2702 2700 2699 2698 2699 2700 2701 2703 2705 2706 2709 2712 2715 2718 2720 2723 2726 2728 2731 2733 2736 2739 2742 2745 2748 2751 2754 2756 2759 2762 2765 2768 2770 2773 2776 2779 2782 2785 2788 2792 2797 2801
2775 2772 2769 2767 2765 2762 2760 2756 2753 2750 2747 2745 2742 2740 2738 2737 2735 2734 2732 2729 2727 2724 2722 2719 2717 2715 2713 2711 2709 2708 2707 2706 2705 2703 2702 2701 2701 2701 2702 2703 2705 2707 2709 2712 2714 2717 2719 2722 2724 2726 2728 2731 2734 2737 2740 2742 2745 2748 2751 2753 2756 2758 2761 2764 2766 2769 2772 2775 2778 2782 2785 2789 2792 2796
2774 2771 2770 2768 2765 2762 2758 2755 2752 2749 2746 2744 2742 2740 2738 2737 2735 2733 2731 2729 2727 2725 2722 2720 2718 2716 2714 2713 2711 2710 2708 2707 2706 2705 2705 2704 2703 2703 2703 2704 2705 2707 2709 2712 2714 2716 2718 2720 2722 2724 2726 2728 2731 2734 2737 2739 2742 2745 2748 2750 2753 2755 2758 2760 2763 2765 2768 2772 2774 2777 2780 2784 2787 2791
2773 2771 2770 2768 2764 2760 2756 2753 2750 2748 2746 2744 2742 2740 2739 2737 2735 2733 2731 2730 2728 2726 2724 2721 2719 2718 2716 2715 2713 2711 2710 2708 2707 2707 2706 2706 2705 2705 2705 2705 2706 2708 2710 2712 2714 2715 2717 2718 2720 2722 2724 2726 2729 2731 2734 2736 2738 2741 2744 2747 2749 2752 2754 2757 2759 2762 2765 2768 2770 2773 2776 2779 2783 2787
2773 2772 2770 2767 2763 2759 2756 2753 2751 2749 2747 2744 2742 2741 2739 2737 2735 2734 2732 2731 2729 2727 2725 2723 2721 2719 2718 2716 2714 2713 2711 2710 2709 2708 2708 2707 2707 2707 2707 2707 2707 2708 2710 2711 2713 2714 2715 2717 2718 2720 2723 2725 2727 2729 2731 2733 2735 2738 2741 2743 2746 2748 2751 2753 2756 2758 2761 2763 2766 2769 2772 2775 2779 2782
2773 2772 2770 2767 2763 2760 2758 2755 2753 2751 2748 2746 2744 2742 2740 2738 2736 2734 2732 2731 2729 2727 2726 2724 2722 2720 2718 2717 2715 2714 2713 2711 2710 2709 2709 2708 2708 2708 2708 2708 2708 2709 2710 2711 2712 2713 2714 2715 2717 2718 2721 2723 2725 2727 2729 2731 2733 2735 2737 2740 2743 2745 2747 2749 2751 2754 2756 2759 2762 2765 2768 2771 2774 2777
2773 2772 2770 2766 2763 2761 2759 2757 2755 2753 2750 2748 2745 2743 2741 2739 2737 2735 2733 2731 2729 2728 2726 2724 2722 2720 2719 2717 2716 2715 2714 2713 2712 2711 2710 2710 2710 2710 2710 2710 2710 2710 2711 2711 2712 2712 2713 2714 2715 2717 2719 2721 2723 2725 2727 2728 2730 2732 2735 2737 2739 2741 2743 2745 2747 2749 2752 2754 2757 2759 2762 2766 2769 2772
2773 2772 2769 2766 2764 2762 2761 2759 2757 2755 2752 2750 2747 2745 2743 2740 2738 2736 2734 2731 2730 2728 2726 2725 2723 2721 2720 2718 2717 2716 2715 2714 2713 2712 2712 2711 2711 2710 2710 2710 2711 2711 2712 2712 2712 2713 2713 2714 2714 2715 2717 2719 2721 2723 2724 2726 2728 2730 2732 2734 2736 2737 2740 2742 2744 2745 2747 2750 2752 2755 2757 2761 2764 2768
2772 2771 2769 2766 2764 2763 2761 2760 2758 2756 2754 2751 2749 2747 2744 2742 2740 2737 2735 2733 2731 2729 2727 2725 2724 2722 2721 2719 2718 2717 2715 2715 2714 2713 2713 2712 2712 2711 2711 2711 2712 2712 2712 2713 2713 2713 2714 2714 2714 2715 2716 2717 2719 2721 2722 2724 2726 2727 2729 2731 2733 2734 2736 2738 2740 2742 2744 2746 2748 2750 2753 2756 2760 2763
2772 2771 2769 2767 2765 2763 2762 2760 2759 2757 2755 2753 2750 2748 2746 2744 2742 2740 2737 2735 2733 2731 2729 2727 2725 2723 2722 2720 2719 2718 2717 2715 2715 2714 2713 2713 2712 2712 2712 2712 2712 2713 2713 2713 2714 2714 2715 2715 2715 2715 2716 2716 2717 2719 2720 2722 2723 2725 2727 2729 2730 2732 2734 2735 2737 2739 2741 2743 2745 2747 2749 2752 2755 2758
2771 2770 2768 2767 2765 2764 2762 2761 2759 2758 2756 2754 2752 2750 2748 2746 2744 2742 2739 2737 2735 2733 2731 2728 2727 2725 2723 2722 2720 2719 2718 2717 2716 2715 2714 2714 2713 2713 2713 2713 2713 2713 2713 2714 2714 2714 2715 2715 2716 2716 2716 2716 2717 2718 2719 2720 2722 2723 2725 2726 2728 2730 2731 2733 2734 2736 2738 2740 2742 2744 2746 2748 2751 2754
2770 2769 2768 2767 2765 2764 2762 2761 2760 2758 2756 2755 2753 2751 2749 2747 2745 2743 2741 2739 2737 2735 2733 2730 2729 2727 2725 2723 2722 2720 2719 2717 2716 2716 2715 2714 2713 2713 2713 2713 2713 2713 2714 2714 2714 2714 2715 2715 2716 2716 2717 2717 2717 2718 2719 2720 2721 2722 2723 2724 2726 2727 2729 2730 2732 2733 2735 2737 2739 2741 2743 2745 2747 2749
2769 2768 2767 2766 2765 2764 2763 2761 2760 2758 2757 2755 2753 2752 2750 2748 2746 2744 2742 2740 2738 2736 2734 2732 2731 2729 2727 2725 2724 2722 2720 2719 2718 2717 2716 2715 2714 2714 2713 2713 2713 2713 2714 2714 2714 2714 2715 2715 2716 2716 2717 2718 2718 2718 2719 2720 2720 2721 2722 2723 2724 2726 2727 2729 2730 2731 2733 2734 2736 2738 2740 2741 2743 2746
2768 2767 2766 2765 2765 2764 2762 2761 2760 2759 2757 2756 2754 2752 2750 2748 2746 2745 2743 2741 2739 2737 2736 2734 2732 2730 2729 2727 2725 2723 2722 2720 2719 2718 2717 2716 2715 2714 2714 2713 2713 2713 2713 2713 2713 2714 2714 2715 2715 2716 2717 2717 2718 2719 2719 2720 2721 2721 2722 2723 2724 2724 2726 2727 2728 2729 2731 2732 2733 2734 2736 2737 2739 2741
2766 2766 2765 2764 2764 2763 2762 2761 2760 2758 2757 2756 2754 2752 2751 2749 2747 2745 2743 2742 2740 2738 2737 2735 2733 2731 2730 2728 2726 2725 2723 2722 2720 2719 2718 2717 2716 2715 2714 2714 2713 2713 2713 2713 2713 2713 2714 2714 2715 2716 2716 2717 2718 2718 2719 2720 2720 2721 2722 2723 2723 2724 2724 2725 2726 2727 2729 2729 2730 2731 2733 2734 2735 2737
2765 2765 2764 2764 2763 2762 2761 2760 2759 2758 2757 2756 2754 2753 2751 2749 2747 2746 2744 2742 2741 2739 2737 2736 2734 2732 2731 2729 2728 2726 2724 2723 2721 2720 2719 2717 2716 2715 2715 2714 2714 2713 2713 2713 2713 2713 2713 2714 2714 2715 2716 2716 2717 2717 2718 2719 2720 2720 2721 2722 2723 2723 2724 2724 2725 2726 2727 2729 2730 2730 2731 2732 2733 2735
2764 2763 2763 2762 2762 2761 2760 2760 2759 2758 2757 2756 2754 2753 2751 2750 2748 2746 2745 2743 2741 2740 2738 2737 2735 2733 2732 2730 2729 2727 2725 2724 2723 2721 2720 2719 2718 2717 2716 2715 2714 2714 2713 2713 2713 2713 2713 2713 2713 2714 2714 2715 2716 2716 2717 2718 2719 2719 2720 2721 2722 2722 2723 2724 2725 2725 2727 2728 2729 2729 2730 2731 2732 2734
Wind_Speed
35 30 27 26 27 29 32 33 34 35 36 37 39 40 42 44 46 44 38 30 25 19 16 15 14 15 19 22 24 28 31 35 39 44 48 51 53 54 55 56 56 55 54 53 52 51 49 49 50 51 53 58 69 82 86 85 79 68 59 52 47 47 47 50 53 53 58 63 63 64 66 68 71 72
34 29 26 26 27 30 32 33 34 35 36 37 38 39 41 42 40 40 37 27 20 17 15 14 13 13 16 19 21 25 28 32 36 42 46 50 53 54 55 56 57 56 55 53 52 51 49 49 50 49 51 54 62 75 83 86 84 76 66 59 51 48 46 48 51 49 51 60 61 62 65 66 69 70
34 28 25 25 28 30 32 33 34 35 36 37 39 39 39 38 34 33 35 26 17 19 22 20 19 18 18 20 22 23 26 30 34 39 44 48 51 54 55 56 56 56 56 54 52 52 50 50 50 49 49 51 56 66 75 82 86 82 74 66 59 53 46 44 49 48 47 53 57 61 64 64 68 70
33 28 25 25 28 31 32 33 34 35 36 37 38 39 38 35 31 29 32 30 24 25 27 25 24 24 23 23 24 25 27 29 33 38 42 47 50 54 56 56 57 57 56 55 53 52 51 51 51 50 49 50 52 59 67 75 82 83 81 74 66 61 54 46 42 41 47 51 49 56 63 62 65 70
32 28 25 25 28 31 32 33 34 36 37 38 38 39 36 32 30 30 31 32 31 28 28 28 27 27 27 26 25 27 28 29 33 37 41 45 49 52 55 56 57 57 57 56 54 52 52 51 51 50 49 49 50 54 60 67 76 81 82 80 74 68 61 55 45 40 50 55 46 50 61 61 62 68
31 28 25 25 28 31 32 33 34 36 37 38 38 38 36 32 31 33 34 34 34 31 29 29 28 27 27 26 25 26 29 30 33 36 40 43 47 51 54 56 57 57 57 56 54 53 52 52 52 51 50 49 49 52 56 61 68 76 80 80 79 73 67 65 58 47 51 59 50 48 57 59 60 64
31 28 25 26 28 31 32 32 34 35 36 37 38 38 36 34 34 35 35 36 36 34 31 30 30 28 27 26 25 25 27 29 32 35 38 42 46 50 53 56 57 57 57 57 55 54 53 53 53 52 51 50 49 50 53 58 63 69 75 78 79 76 72 71 67 54 49 56 53 50 53 56 58 61
32 29 26 26 29 31 32 32 33 35 36 37 38 37 35 34 36 35 35 36 37 38 35 32 30 29 27 26 25 24 25 27 30 34 37 40 44 48 52 55 57 58 58 57 56 54 53 53 53 53 51 51 50 50 51 54 59 63 68 74 77 75 73 71 68 61 54 54 55 53 52 53 55 59
31 29 26 26 28 31 32 32 33 35 36 36 36 35 34 35 35 35 35 36 38 39 37 32 28 27 26 24 23 23 24 25 28 31 35 38 42 47 51 54 57 57 58 57 56 54 54 53 54 53 52 51 50 50 51 53 56 59 62 67 73 73 70 69 67 65 60 57 58 58 53 52 53 56
31 29 27 26 28 30 31 32 33 35 36 36 35 34 34 34 35 35 35 37 38 37 34 30 25 24 24 23 23 23 24 26 27 30 33 36 39 44 49 53 56 57 58 57 56 55 54 53 54 54 53 52 51 50 51 53 55 57 59 61 67 68 66 65 66 68 64 58 59 61 55 50 52 55
31 30 27 26 26 29 30 31 32 34 36 37 36 34 34 34 34 35 36 37 37 33 28 25 23 23 23 24 24 24 26 28 28 30 32 34 37 41 47 51 55 57 58 57 56 55 54 53 53 54 54 52 52 51 51 53 55 57 59 60 63 65 64 65 66 69 68 59 54 56 53 47 49 55
30 30 28 26 25 27 29 30 32 34 36 38 37 34 34 34 34 34 36 36 33 27 23 22 21 21 20 20 22 23 25 28 29 30 33 34 34 38 44 49 53 56 57 58 57 55 54 54 53 54 55 53 52 52 51 52 55 57 59 60 63 66 66 67 68 69 71 65 53 47 46 43 46 53
29 30 29 26 25 26 27 28 30 31 33 35 35 34 33 33 33 34 35 35 30 23 21 20 20 19 15 14 16 18 21 26 28 29 32 34 34 35 41 46 50 54 56 57 57 54 53 53 53 53 54 54 52 52 52 52 54 56 59 59 62 66 68 70 71 70 71 73 66 55 48 43 44 49
28 28 29 27 25 25 26 27 28 29 30 30 30 30 31 31 31 34 35 34 29 22 20 20 20 19 16 14 16 16 16 21 26 28 30 33 33 33 37 44 48 51 54 56 56 54 52 52 53 53 53 53 53 52 52 51 52 53 56 59 60 64 69 72 73 72 72 74 75 71 63 54 49 49
28 27 28 27 25 24 25 25 26 27 28 28 27 27 27 26 29 33 34 33 29 24 21 20 20 20 19 17 16 14 13 16 22 25 29 33 33 32 34 41 46 48 51 54 55 54 51 51 52 52 52 52 52 52 51 50 50 50 53 57 59 60 65 72 75 74 73 74 76 76 73 66 60 57
29 27 27 27 25 23 24 25 26 26 25 25 26 26 24 23 25 29 30 32 30 26 22 20 18 20 21 18 14 14 16 17 18 21 26 32 35 33 33 38 43 43 46 51 53 53 51 50 51 51 51 51 51 51 51 49 50 50 50 54 57 58 60 66 73 76 76 77 77 76 74 70 67 65
30 28 27 27 25 23 23 24 26 26 26 24 24 23 22 21 23 25 25 28 29 28 25 23 20 20 22 19 15 17 21 20 19 19 21 28 34 33 31 35 39 39 43 48 50 51 50 48 48 49 49 49 50 50 50 50 50 50 50 51 55 57 57 59 67 74 77 78 78 76 73 72 71 69
31 29 28 27 26 23 22 24 25 26 26 24 22 22 21 21 23 24 23 24 26 27 26 24 23 22 23 21 19 21 22 23 22 19 19 24 29 29 27 30 35 36 41 45 46 49 49 46 46 47 46 47 49 49 49 50 50 49 49 50 52 56 57 57 60 68 75 78 78 77 75 74 73 72
31 30 28 27 26 23 21 23 25 26 26 24 22 22 22 21 22 25 25 25 27 27 26 24 23 22 22 23 25 26 25 24 24 19 18 21 24 24 23 26 31 35 39 41 42 45 48 46 45 46 45 45 46 48 49 49 49 49 48 49 50 53 56 56 57 62 70 76 78 78 77 76 74 73
31 30 28 27 27 24 21 21 23 25 25 24 22 21 21 21 22 24 26 29 31 31 30 28 25 24 25 28 32 33 29 26 23 14 14 17 18 20 19 21 27 32 34 36 39 42 43 44 44 44 44 44 43 45 47 47 47 48 47 47 48 50 53 54 55 58 65 73 78 78 78 77 75 73
30 29 28 27 27 25 21 20 22 24 24 23 21 20 20 21 22 23 25 29 33 34 35 35 32 31 33 35 36 35 31 26 19 7 11 13 12 12 13 16 24 30 30 29 33 37 37 38 40 40 40 41 41 42 45 45 46 47 46 46 46 48 50 52 53 55 60 67 74 78 78 77 75 72
29 29 27 27 27 26 22 20 21 23 24 23 21 20 20 21 23 23 25 28 31 33 34 36 35 34 35 35 33 33 32 26 15 2 8 10 10 10 11 13 22 30 31 26 27 33 33 31 34 35 35 37 40 42 43 43 45 46 46 45 45 46 48 49 50 51 55 61 68 74 77 77 74 72
28 27 27 26 27 26 23 20 21 23 24 22 20 19 20 21 23 25 27 29 31 30 29 29 27 25 26 29 29 31 32 27 16 4 5 8 9 13 17 17 20 27 31 28 25 29 30 28 30 32 34 37 40 41 41 41 42 44 45 44 44 45 47 48 48 49 51 55 62 68 73 75 74 73
26 26 26 26 26 26 24 21 20 22 23 21 20 19 20 22 23 25 28 30 31 30 27 25 21 18 19 22 25 28 30 28 20 9 5 8 9 15 21 22 21 24 29 30 26 25 26 26 27 30 33 36 38 38 38 39 40 41 42 42 43 44 45 46 46 47 48 51 56 62 68 71 73 73
25 25 25 25 25 25 23 21 19 20 20 19 19 19 21 23 24 25 27 29 29 29 27 24 20 16 15 17 20 23 25 25 23 14 6 7 8 13 20 22 21 21 25 28 27 25 25 24 24 26 29 30 31 32 33 35 37 37 38 39 40 41 43 44 45 45 47 49 53 57 62 66 69 71
25 25 25 25 24 24 22 20 17 17 17 17 17 18 20 23 24 25 26 27 27 27 27 24 20 15 12 12 15 19 21 21 21 17 8 5 6 9 15 19 19 18 21 26 27 25 26 25 23 25 26 26 27 28 29 31 34 34 35 36 37 38 40 42 43 44 45 47 51 55 58 61 64 67
24 25 25 25 24 23 21 18 15 14 14 15 16 17 19 21 23 24 25 25 24 25 25 24 22 18 13 11 12 16 19 19 20 18 12 5 6 7 11 18 20 16 16 24 27 23 23 24 24 25 26 26 27 27 27 28 30 32 33 34 35 37 39 41 42 43 43 44 48 53 56 59 61 63
24 24 24 25 24 22 20 18 16 14 13 13 15 16 17 20 21 23 23 23 23 23 23 22 22 21 19 15 14 15 17 18 19 19 16 7 6 8 9 16 21 17 12 19 23 20 18 20 21 22 24 25 26 27 28 28 29 30 32 34 36 37 39 40 42 42 43 44 47 51 55 58 60 62
23 23 24 24 23 21 19 19 18 16 14 14 14 15 17 18 20 20 21 21 21 21 21 21 21 22 22 21 19 17 15 14 15 16 16 11 5 8 10 12 16 17 14 15 18 18 18 20 21 21 23 24 24 24 26 29 30 31 32 34 36 37 38 40 41 41 42 44 46 49 53 56 58 60
22 22 23 23 22 20 19 18 19 19 18 16 15 16 17 18 18 19 19 20 20 20 21 20 19 20 21 21 21 18 14 10 10 11 13 12 8 4 11 14 14 15 16 17 18 18 19 19 21 23 25 26 26 25 24 26 29 31 32 33 35 36 37 38 40 40 41 43 45 47 50 53 56 57
22 22 22 21 21 21 21 21 21 21 21 20 18 17 16 17 17 18 19 20 20 20 20 19 19 19 19 19 19 18 15 12 9 9 9 10 11 7 6 11 15 16 17 18 20 21 20 19 19 21 24 26 27 27 26 25 26 30 33 33 34 35 36 36 38 39 40 41 43 45 48 50 52 54
21 20 20 20 20 22 24 24 24 23 22 21 20 18 17 16 17 18 18 19 19 19 18 18 18 18 17 17 16 16 16 14 11 9 8 8 9 9 8 8 11 16 18 19 20 22 22 19 17 18 20 24 26 27 26 25 26 29 32 33 33 33 33 34 36 37 38 40 41 43 44 46 48 50
19 19 19 19 21 24 25 25 25 24 22 21 20 19 18 17 16 16 16 16 16 16 16 16 16 16 15 15 15 15 14 14 13 11 8 8 9 8 8 9 11 12 14 15 16 18 20 19 18 18 19 21 22 23 24 24 26 28 31 33 33 33 32 33 34 35 37 38 39 40 41 42 44 46
17 17 17 19 21 23 24 24 24 23 22 22 21 20 19 18 16 16 15 15 15 16 15 14 14 15 15 14 14 13 12 12 13 12 10 8 7 7 8 9 11 11 10 10 11 13 15 16 18 19 20 21 21 22 23 24 25 27 29 32 34 34 33 32 33 34 36 38 38 39 39 40 40 42
14 15 16 18 19 21 22 23 23 23 24 23 23 23 22 21 20 18 17 16 15 15 15 15 14 14 14 14 13 12 11 11 12 12 11 10 7 6 6 8 9 10 10 9 9 9 10 12 13 16 19 21 22 23 23 24 25 26 28 30 33 34 33 32 32 34 35 37 38 38 38 38 38 39
12 13 15 16 18 18 20 20 21 22 23 24 24 24 24 24 24 23 21 21 19 18 16 15 14 14 14 14 14 13 12 11 10 10 10 9 8 6 5 5 6 7 8 9 9 9 8 8 9 12 15 18 21 22 23 24 25 26 27 29 31 33 32 32 32 33 34 35 37 39 39 37 37 37
11 12 13 14 15 16 17 18 19 20 22 23 23 24 25 26 26 25 25 25 25 23 20 17 15 15 14 14 14 14 13 11 10 9 9 8 8 7 6 4 3 4 5 7 8 9 8 7 6 8 11 14 17 19 21 23 25 26 28 28 29 31 32 31 31 32 33 35 36 38 39 38 36 36
9 10 11 12 13 14 15 17 18 19 20 21 22 23 24 25 25 25 25 26 26 25 24 22 20 17 16 15 14 13 13 12 11 10 9 8 7 6 6 4 3 2 2 4 6 7 8 7 7 6 7 9 12 14 17 20 22 24 26 27 28 29 30 31 31 31 33 34 36 38 38 38 37 36
8 8 9 10 11 12 13 15 16 17 18 19 20 21 22 23 24 24 24 24 24 24 24 24 23 21 19 18 16 14 13 12 11 10 9 8 7 6 5 4 3 2 1 1 2 4 6 7 7 7 7 8 9 11 12 15 18 20 22 23 24 25 27 29 30 31 32 33 35 37 38 38 38 37
7 7 7 8 10 11 12 13 14 15 16 17 18 20 20 21 22 22 23 23 23 22 23 23 23 22 21 20 19 18 16 14 13 11 10 9 7 6 5 4 3 2 1 1 1 2 3 4 6 7 8 8 9 10 10 10 12 14 16 18 19 21 22 23 25 27 29 30 32 34 36 37 37 37
6 6 6 7 8 9 10 11 13 14 15 16 17 18 19 20 21 21 22 22 22 21 21 21 21 21 20 20 20 19 18 17 16 14 13 12 10 8 6 5 3 2 2 2 2 2 2 2 4 5 7 8 9 10 11 10 10 10 10 12 14 16 17 18 19 21 23 24 25 27 30 32 34 35
6 5 5 6 7 7 9 10 12 13 14 15 17 18 19 20 21 21 22 22 21 21 20 20 19 19 19 19 19 19 18 18 17 16 15 13 12 10 8 6 5 3 3 3 3 3 4 3 3 4 5 7 7 8 10 10 10 9 9 9 10 10 12 14 15 18 19 20 20 21 23 26 29 32
6 5 5 5 6 7 8 9 11 13 14 15 17 18 19 20 20 20 21 21 21 21 20 20 19 19 18 18 18 18 18 18 18 17 16 14 13 11 10 9 8 6 4 4 4 5 5 5 6 6 6 7 7 8 9 9 10 10 9 9 9 9 9 9 11 14 17 19 20 20 20 22 25 29
7 6 5 5 6 7 8 8 10 11 13 15 16 17 18 19 19 19 20 20 20 20 20 19 19 19 19 18 18 17 17 17 17 17 17 16 15 14 12 11 10 9 7 6 5 6 6 7 8 8 9 8 8 8 9 10 10 10 9 9 9 9 9 9 9 10 12 15 17 18 19 20 23 25
8 7 6 6 6 7 8 9 9 11 12 14 15 17 17 18 18 18 19 19 19 19 19 19 19 19 19 18 18 17 17 17 16 17 17 16 16 16 14 13 12 10 9 8 7 7 8 8 9 10 10 11 11 11 10 10 10 11 11 10 10 9 8 8 8 9 10 10 12 13 14 16 19 21
Wind_Direction
332 331 327 324 323 322 319 319 323 327 328 328 327 327 325 322 320 319 321 326 329 322 308 296 282 269 266 259 253 251 247 245 244 242 241 241 239 237 234 232 232 232 232 234 234 231 228 227 228 228 230 231 232 231 229 226 222 217 212 207 202 201 201 195 190 193 202 206 207 209 210 209 210 211
332 329 326 323 321 319 318 322 327 328 328 329 329 329 326 322 320 318 321 335 347 332 319 315 301 282 271 265 259 255 252 248 246 243 241 240 239 238 235 232 231 231 231 232 233 232 228 227 228 228 228 230 231 232 231 229 226 222 217 213 207 201 202 201 196 193 199 204 206 208 208 208 208 208
331 327 323 321 319 319 321 325 328 328 330 331 331 330 327 323 322 320 320 329 341 325 315 312 304 294 283 276 270 263 259 255 250 246 242 239 239 238 236 233 230 230 230 231 232 232 229 227 227 227 226 228 230 231 232 232 230 226 221 218 214 207 203 201 200 201 203 202 205 210 209 206 206 207
329 325 321 320 319 320 324 326 328 330 332 333 331 329 328 327 327 326 322 320 320 317 313 308 302 297 290 283 278 271 264 259 255 249 244 240 238 238 236 234 231 229 229 229 230 231 229 227 226 227 225 225 228 229 231 233 232 229 226 223 220 215 208 204 205 212 212 203 200 208 211 207 205 207
328 323 319 319 320 321 324 328 330 333 334 332 329 328 329 329 330 329 325 319 315 313 312 308 303 297 291 284 278 274 267 261 258 253 248 242 239 237 236 234 232 229 228 228 229 229 229 227 226 226 226 224 225 227 229 231 232 231 229 227 225 221 213 209 217 226 218 208 198 199 208 209 205 206
328 322 319 319 320 323 326 329 331 334 333 329 327 327 328 330 333 332 328 323 317 312 310 308 304 298 293 285 277 273 268 263 259 255 250 245 240 237 235 234 232 229 228 227 228 228 229 228 226 226 226 224 223 224 226 229 231 232 232 230 229 227 218 213 224 232 219 211 205 196 201 208 207 206
331 324 320 320 322 324 326 329 333 333 332 328 326 327 328 331 335 333 327 323 320 315 312 311 307 301 293 286 279 273 268 264 260 256 252 248 243 238 235 234 232 230 228 226 226 227 228 228 227 226 225 224 223 222 223 226 229 231 233 232 231 230 224 219 224 232 223 212 206 197 197 205 208 208
333 327 322 321 322 323 325 330 333 332 330 328 325 325 328 333 335 331 325 320 319 316 312 310 308 301 294 288 283 277 269 264 260 257 253 249 245 240 235 233 232 230 228 226 225 225 227 227 226 226 225 224 224 222 222 224 226 229 232 233 233 232 230 227 226 230 230 219 206 198 196 200 205 209
335 329 323 320 320 322 325 330 332 331 329 324 322 324 331 334 331 328 324 320 318 316 313 310 308 302 296 289 285 281 273 264 259 258 255 251 246 241 236 233 231 230 229 226 224 224 225 226 226 226 225 224 223 222 222 222 223 226 229 231 233 232 232 232 229 227 230 226 213 203 198 197 202 206
337 332 326 320 319 321 325 330 331 330 327 322 323 329 332 331 328 326 324 320 318 316 313 309 307 303 296 290 286 283 278 270 262 259 257 253 249 244 238 233 230 229 228 226 224 223 224 225 225 225 225 223 223 221 221 221 221 222 224 226 230 230 229 230 228 227 226 219 210 206 201 197 201 204
337 335 329 321 318 319 323 329 330 329 327 324 325 331 331 328 326 325 323 322 321 317 311 308 306 302 298 294 290 285 280 274 266 262 260 256 251 246 240 234 230 228 227 226 224 222 222 223 223 224 224 223 222 221 221 221 221 221 221 221 224 225 224 223 224 226 225 214 203 201 199 196 199 202
338 337 332 323 317 318 323 328 329 330 328 325 325 329 329 325 324 325 325 326 325 317 311 311 308 304 303 299 294 289 284 277 270 265 262 259 254 248 242 235 230 227 226 226 224 221 221 222 222 222 223 223 222 221 220 220 221 221 221 220 220 220 220 219 220 223 225 221 211 204 202 200 199 200
339 337 334 326 317 317 322 326 328 328 325 322 324 325 322 321 324 328 330 332 330 323 317 316 310 304 302 299 294 290 284 279 275 269 264 262 258 252 244 236 230 227 225 224 223 221 221 222 221 221 223 223 222 221 220 220 221 221 222 221 220 219 217 217 217 219 222 224 223 220 217 214 208 204
341 339 336 329 318 315 319 323 326 324 321 321 321 319 317 323 330 331 333 337 338 333 323 315 307 300 299 301 298 294 287 280 277 272 266 262 260 256 246 236 229 226 223 223 223 221 220 222 221 220 221 221 221 221 221 221 221 222 222 222 221 220 218 216 216 218 220 223 225 227 229 228 223 217
344 341 339 332 322 315 317 321 324 322 321 321 316 311 316 329 336 334 336 342 345 340 327 314 305 302 304 307 305 303 297 285 279 274 267 261 260 258 249 235 227 224 223 222 221 220 219 221 221 220 220 220 221 221 221 221 221 222 222 223 223 223 221 218 217 217 219 221 223 226 230 232 231 227
345 343 341 336 327 318 317 321 324 323 322 319 312 311 319 333 339 337 339 345 348 342 332 322 315 311 312 315 311 306 302 297 293 285 269 259 256 256 251 236 224 221 222 221 219 218 217 219 221 220 219 219 220 220 220 220 221 221 221 222 223 224 225 222 219 218 218 219 221 223 226 230 231 230
345 344 342 339 332 322 318 321 324 325 324 318 313 315 322 334 342 342 343 348 350 346 339 335 332 326 323 326 321 311 310 315 318 303 273 257 252 250 246 234 222 217 219 219 217 216 215 217 220 220 218 218 219 218 219 219 220 221 220 221 222 224 226 225 222 221 219 219 220 221 223 226 228 229
345 344 343 341 336 326 318 321 324 326 325 321 320 322 327 337 346 346 346 350 354 353 347 340 337 335 331 330 328 324 325 331 331 311 274 255 250 246 241 231 220 213 213 214 215 214 213 214 218 220 219 218 218 217 217 218 220 221 221 220 221 223 225 226 225 224 222 220 219 220 221 223 225 227
344 344 343 342 339 331 321 321 325 328 327 325 326 328 332 343 351 348 348 353 357 359 355 348 343 339 333 332 338 344 342 338 334 312 269 252 250 245 237 226 215 209 207 209 210 212 211 211 215 218 220 219 218 217 216 217 219 221 222 221 221 222 223 225 226 225 224 222 221 220 221 223 224 225
343 344 344 343 341 335 325 321 325 328 328 326 328 329 335 347 354 353 355 357 357 359 0 357 350 344 342 344 351 354 348 339 334 309 254 246 245 234 222 212 205 201 199 201 205 208 209 210 211 215 219 220 219 217 216 217 218 220 222 222 221 222 223 224 226 225 225 224 223 223 222 224 225 226
344 344 343 343 343 338 328 322 325 328 328 327 327 329 338 351 355 356 2 3 358 356 357 356 352 350 350 351 352 351 347 344 341 304 231 232 229 208 195 193 190 184 181 190 201 204 204 207 209 212 216 218 218 217 216 216 216 219 222 223 222 222 223 224 226 225 224 224 224 224 224 225 227 228
344 344 344 344 344 341 332 325 326 329 329 329 328 329 341 353 355 356 3 7 3 357 354 352 350 349 347 346 347 348 350 355 1 326 213 223 212 180 161 166 172 171 168 175 196 201 198 201 207 208 209 213 216 216 214 214 215 217 221 223 223 223 223 224 225 225 224 223 223 224 224 225 228 229
344 345 346 346 345 342 337 329 326 327 328 330 332 334 343 353 357 358 1 5 5 1 355 348 344 342 341 342 345 349 354 3 16 58 182 213 199 165 153 156 167 175 173 173 188 199 196 196 202 204 205 209 213 214 212 212 213 216 219 223 223 223 223 223 225 225 224 223 222 222 224 225 228 230
345 347 348 348 346 344 340 332 326 323 325 332 337 341 347 353 359 2 2 360 359 358 354 348 342 337 341 346 349 353 357 5 17 47 141 192 186 159 155 160 169 180 180 175 182 195 197 197 202 204 206 209 212 213 211 210 212 215 218 222 223 223 223 223 224 225 225 224 222 221 222 224 227 229
346 348 351 350 348 346 342 333 321 316 322 334 342 347 352 355 359 4 3 357 354 353 352 350 345 338 338 348 357 1 2 6 14 31 92 163 176 168 166 166 170 181 185 181 184 195 202 205 206 203 204 207 211 212 212 212 214 216 218 221 222 223 223 223 224 225 226 226 225 223 222 223 226 229
347 349 351 351 350 349 343 333 319 312 320 336 346 352 356 357 359 3 1 354 349 349 350 350 350 347 340 343 358 8 10 13 18 26 52 119 161 185 189 183 176 179 188 190 189 190 194 202 206 202 201 206 209 211 213 215 217 218 219 221 222 222 223 224 225 225 227 228 228 226 224 224 226 228
348 349 351 351 352 350 345 338 325 315 320 337 350 356 358 357 359 1 358 351 348 348 349 349 351 357 1 358 4 12 15 18 24 29 41 92 161 193 210 206 197 187 185 190 192 188 187 195 200 199 201 207 211 212 214 216 218 219 220 222 222 221 222 223 224 224 226 229 229 227 225 225 226 227
350 350 351 352 352 349 347 348 345 336 334 341 350 356 359 358 359 359 354 350 349 349 348 348 353 0 9 15 19 21 19 17 20 27 40 70 162 190 209 215 215 214 198 188 192 194 192 195 199 199 202 207 210 212 214 216 218 220 221 221 221 221 220 220 221 222 223 226 227 226 224 224 224 226
352 352 352 353 352 349 349 356 0 357 352 351 352 356 359 359 358 357 354 352 353 351 348 349 355 2 7 13 18 21 23 22 19 23 35 54 117 191 211 220 222 222 213 201 202 206 205 206 209 210 210 212 214 212 212 214 217 219 220 221 222 221 221 220 220 221 221 223 225 224 223 223 223 224
352 354 356 353 351 353 356 2 7 8 5 4 1 358 358 356 356 356 356 356 357 356 351 350 355 1 6 9 12 14 19 28 30 28 33 44 61 154 209 223 226 218 209 209 215 218 219 222 224 222 220 219 219 218 215 215 216 217 218 221 222 222 222 222 221 221 222 223 224 223 223 222 222 223
354 357 357 352 353 359 5 9 12 14 12 10 6 1 356 353 353 356 358 0 1 359 355 352 354 359 2 3 6 11 15 24 34 36 37 41 49 71 157 205 220 218 211 211 216 221 225 228 226 226 226 222 219 218 220 220 219 216 216 218 221 222 222 223 223 223 223 224 224 224 223 222 222 222
356 358 355 354 1 9 12 13 15 15 14 12 9 6 2 356 354 355 356 359 1 360 357 354 353 354 356 358 2 8 14 21 32 39 46 54 57 64 94 147 188 205 212 216 220 226 232 233 225 221 223 222 219 219 221 223 219 215 214 216 219 221 222 222 223 223 223 223 224 224 223 223 222 222
357 356 354 360 11 17 18 19 19 18 17 16 12 10 8 3 359 356 355 357 0 3 3 358 353 352 354 357 1 6 11 19 29 36 43 58 68 75 90 112 135 165 190 203 209 215 225 231 228 223 223 223 222 221 222 222 219 216 215 217 218 220 221 220 221 222 222 222 222 222 222 222 222 222
356 354 356 9 20 24 25 27 27 26 26 25 22 20 17 14 9 5 2 2 3 6 9 6 359 357 357 357 360 6 12 18 27 33 36 46 64 82 103 115 119 132 155 177 191 200 208 216 220 221 221 222 222 222 222 223 223 221 220 220 220 221 222 220 220 221 221 222 223 223 222 222 222 222
356 353 1 16 27 30 30 32 33 33 34 34 33 31 29 27 25 21 17 14 12 11 11 11 7 4 2 0 1 6 13 20 25 29 32 35 44 67 98 113 119 125 135 147 165 181 191 196 200 204 209 214 218 221 224 226 227 226 225 223 223 224 224 223 222 222 221 221 222 223 223 222 221 222
355 355 5 19 28 31 33 33 33 34 36 36 36 36 34 33 33 30 28 27 26 22 18 15 12 9 7 6 6 7 11 18 23 26 29 31 34 44 66 92 111 123 128 133 140 148 157 168 176 183 191 200 210 218 223 227 228 227 227 226 225 225 226 226 225 226 225 222 222 223 224 223 221 222
354 357 7 19 25 29 31 32 31 31 33 34 34 34 33 33 32 32 31 31 31 30 28 26 21 14 10 10 10 9 9 11 17 24 27 30 32 36 41 55 81 111 127 132 134 134 131 133 147 165 177 187 197 208 217 222 225 226 226 226 225 225 226 226 227 227 227 226 224 224 224 224 222 222
351 359 10 18 21 24 26 28 28 28 28 29 30 30 30 30 29 29 29 30 31 31 31 32 30 23 17 14 12 11 10 11 12 16 19 23 26 30 32 35 39 54 114 138 141 140 136 129 129 143 162 175 184 195 206 214 218 220 221 223 224 225 226 226 227 227 227 226 225 225 225 225 224 223
345 358 12 18 18 19 21 22 24 24 24 25 25 26 26 25 24 24 24 25 27 28 28 30 31 29 25 21 16 14 12 11 10 11 14 18 21 22 23 24 25 25 31 155 153 151 148 144 140 139 145 156 164 174 189 203 209 212 214 216 218 221 223 225 226 226 226 224 223 223 223 223 223 223
338 353 10 17 16 16 15 16 18 18 19 20 20 20 21 21 20 20 20 20 21 22 24 26 28 29 29 26 23 19 17 15 13 9 10 14 16 18 19 12 3 359 325 254 210 173 162 162 160 155 150 148 149 151 159 175 191 199 205 209 211 214 217 219 222 224 223 222 221 221 221 221 221 221
328 345 0 10 13 12 10 10 11 11 12 14 14 14 16 16 16 16 17 17 17 17 19 21 23 24 27 27 25 24 23 22 20 15 12 10 8 8 10 6 354 338 313 281 249 231 216 194 184 176 169 162 155 150 148 151 159 171 184 193 201 208 210 212 215 217 216 217 218 219 219 219 219 219
313 333 347 356 3 7 7 6 5 5 6 7 8 9 10 11 13 14 15 16 14 14 15 18 18 19 21 23 24 24 25 24 23 21 18 15 9 2 358 352 343 327 307 293 273 257 250 234 219 208 198 191 183 170 160 154 153 156 161 168 178 190 199 206 211 212 210 209 210 213 215 216 216 218
301 317 331 340 346 354 0 2 1 1 1 1 3 5 6 7 9 12 13 13 13 12 13 15 15 16 17 18 19 21 22 23 23 22 20 18 14 7 360 352 346 339 321 303 284 271 264 251 239 232 224 217 211 200 189 180 172 166 162 162 163 166 174 188 202 209 211 209 207 207 209 210 212 216
291 301 313 324 333 340 348 353 355 356 357 357 358 0 2 3 6 8 10 11 11 10 11 13 14 14 15 15 15 17 17 19 20 20 19 18 15 12 8 2 356 348 336 320 300 279 268 259 250 243 237 231 228 222 214 208 199 191 183 175 170 166 166 172 182 193 203 209 209 207 208 209 212 214
283 291 298 308 320 329 336 341 346 350 353 354 354 355 357 359 2 5 6 8 9 8 8 9 11 12 13 12 13 14 14 15 15 15 15 16 15 12 9 5 359 352 341 327 310 291 276 265 258 252 246 240 237 232 228 225 220 214 208 202 193 185 177 175 177 180 185 193 198 199 202 206 211 215